User: anonymous
Location: ActonStarParty
(42.4766°N, 71.4538°W)
Time: 17:16:13
(UTC-04:00)
Language:

Cosmos 1300 - Orbit

View from above orbital plane
View from above orbital plane
View from above satellite
View from above satellite

Ground track
Ground track

The orbit data is extracted from the following two-line orbital elements,

1 12785U 81082A   14210.74707025  .00002769  00000-0  16288-3 0  7734
2 12785 082.5057 031.7550 0000318 086.9869 041.0941 15.11296650792352
Epoch (UTC): 29 July 2014 17:55:46
Eccentricity: 0.0000318
inclination: 82.5057°
perigee height: 532 km
apogee height: 532 km
right ascension of ascending node: 31.7550°
argument of perigee: 86.9869°
revolutions per day: 15.11296650
mean anomaly at epoch: 41.0941°
orbit number at epoch: 79235

The dashed part of the orbit path shows where the satellite is in the earth's shadow,  

DLR